Back to catalog

STARLINK-4612

AliveCommunicationsVLEO
NORAD 53750·PAYLOAD·🇺🇸 United States

Launched Sep 5, 2022 from Cape Canaveral Space Force Station

Loading…

Next Passes (next 24 hours)

TLE

FreshSource: CelesTrak SupGP

Epoch: Sep 14, 2026, 22:02 UTC

1 53750C 22107BC  26257.91854167 -.00008907  00000+0 -26320-3 0  2573
2 53750  53.1570 119.5030 0001250  88.0185  47.3060 15.34388675    11

Track STARLINK-4612 in real time with AllMySat

Download on the App Store